Hourly Data Report for October 13, 2014

All times are specified in Local Standard Time (LST). Add 1 hour to adjust for Daylight Saving Time where and when it is observed.

GRISE FIORD CLIMATE
NUNAVUT

76°25'22.040" N
82°54'08.020" W
44.50 m
2402351
71971
NGC

Download Data

Hourly Data (October 2014)
Hourly Data Report for October 13, 2014
Temp Definition
°C
Dew Point Temp Definition
°C
Rel Hum Definition
%
Wind Dir Definition
10's deg

Wind Spd Definition
km/h
Visibility Definition
km
Stn Press Definition
kPa
Hmdx Definition


Wind Chill Definition


Weather Definition


TIME
00:00 0.4 -0.8 92 13 3   101.07     LegendNANA
01:00 -0.5 -1.2 95 1 8   101.12   -3 LegendNANA
02:00 2.9 -0.8 77 5 19   101.11     LegendNANA
03:00 3.4 -2.1 67 4 10   101.18     LegendNANA
04:00 2.1 -2.5 72 5 12   101.20     LegendNANA
05:00 2.5 -2.4 70 6 16   101.21     LegendNANA
06:00 2.1 -5.8 56 7 19   101.29     LegendNANA
07:00 1.5 -4.7 64 13 23   101.33     LegendNANA
08:00 1.4 -5.0 63 14 19   101.36     LegendNANA
09:00 0.7 -4.6 68 11 22   101.37     LegendNANA
10:00 0.6 -4.3 70 11 16   101.42     LegendNANA
11:00 0.5 -4.0 72 7 18   101.44     LegendNANA
12:00 0.5 -4.1 71 8 19   101.44     LegendNANA
13:00 0.6 -4.4 69 13 13   101.46     LegendNANA
14:00 0.5 -4.6 68 7 14   101.49     LegendNANA
15:00 0.7 -5.8 62 7 17   101.50     LegendNANA
16:00 0.7 -5.9 61 6 17   101.50     LegendNANA
17:00 0.5 -5.9 62 6 18   101.52     LegendNANA
18:00 0.5 -5.9 63 5 16   101.50     LegendNANA
19:00 0.0 -6.2 63 7 22   101.48   -6 LegendNANA
20:00 -0.9 -6.2 67 5 18   101.47   -6 LegendNANA
21:00 -0.3 -5.7 67 8 15   101.45   -5 LegendNANA
22:00 -0.1 -5.7 66 7 13   101.43   -4 LegendNANA
23:00 -0.4 -5.5 69 7 14   101.40   -5 LegendNANA

Notes on Data Quality.

Legend

  • E = Estimated
  • M = Missing
  • NA = Not Available
  • ‡ = Partner data that is not subject to review by the National Climate Archives
Date modified: